TimeMST,TemperatureF,Dew PointF,Humidity,Sea Level PressureIn,VisibilityMPH,Wind Direction,Wind SpeedMPH,Gust SpeedMPH,PrecipitationIn,Events,Conditions,WindDirDegrees,DateUTC
12:56 AM,19.0,12.9,77,30.57,10.0,SSE,5.8,-,N/A,,Clear,160,2012-11-23 07:56:00
1:56 AM,19.0,12.9,77,30.57,10.0,Calm,Calm,-,N/A,,Clear,0,2012-11-23 08:56:00
2:56 AM,19.0,12.9,77,30.55,10.0,SE,9.2,-,N/A,,Clear,140,2012-11-23 09:56:00
3:56 AM,18.0,12.0,78,30.56,10.0,Calm,Calm,-,N/A,,Clear,0,2012-11-23 10:56:00
4:56 AM,18.0,12.9,81,30.56,10.0,Calm,Calm,-,N/A,,Clear,0,2012-11-23 11:56:00
5:56 AM,18.0,12.0,78,30.53,10.0,Calm,Calm,-,N/A,,Clear,0,2012-11-23 12:56:00
6:56 AM,18.0,12.0,78,30.53,10.0,SE,3.5,-,N/A,,Clear,130,2012-11-23 13:56:00
7:56 AM,19.0,14.0,81,30.54,10.0,WNW,4.6,-,N/A,,Clear,290,2012-11-23 14:56:00
8:56 AM,23.0,16.0,74,30.52,10.0,South,4.6,-,N/A,,Clear,180,2012-11-23 15:56:00
9:56 AM,26.1,17.1,69,30.52,10.0,Calm,Calm,-,N/A,,Clear,0,2012-11-23 16:56:00
10:56 AM,28.9,17.1,61,30.48,10.0,Calm,Calm,-,N/A,,Clear,0,2012-11-23 17:56:00
11:56 AM,34.0,18.0,52,30.41,10.0,Calm,Calm,-,N/A,,Clear,0,2012-11-23 18:56:00
12:56 PM,37.0,19.9,50,30.37,10.0,Calm,Calm,-,N/A,,Clear,0,2012-11-23 19:56:00
1:56 PM,37.0,18.0,46,30.33,10.0,Calm,Calm,-,N/A,,Clear,0,2012-11-23 20:56:00
2:56 PM,37.9,19.0,47,30.30,10.0,Calm,Calm,-,N/A,,Clear,0,2012-11-23 21:56:00
3:56 PM,34.0,26.1,73,30.32,10.0,Calm,Calm,-,N/A,,Clear,0,2012-11-23 22:56:00
4:56 PM,33.1,25.0,72,30.32,10.0,Calm,Calm,-,N/A,,Clear,0,2012-11-23 23:56:00
5:56 PM,28.9,25.0,85,30.31,10.0,ESE,3.5,-,N/A,,Clear,110,2012-11-24 00:56:00
6:56 PM,30.0,24.1,79,30.30,10.0,SSE,5.8,-,N/A,,Clear,160,2012-11-24 01:56:00
7:56 PM,32.0,26.1,79,30.25,10.0,SSE,5.8,-,N/A,,Clear,150,2012-11-24 02:56:00
8:56 PM,30.0,26.1,85,30.23,10.0,Calm,Calm,-,N/A,,Clear,0,2012-11-24 03:56:00
9:56 PM,32.0,26.1,79,30.22,10.0,South,4.6,-,N/A,,Clear,190,2012-11-24 04:56:00
10:56 PM,28.9,25.0,85,30.20,10.0,SSE,5.8,-,N/A,,Clear,150,2012-11-24 05:56:00
11:56 PM,30.9,26.1,82,30.16,10.0,ESE,4.6,-,N/A,,Mostly Cloudy,120,2012-11-24 06:56:00